www.pogodaiklimat.ru

Погода и климат >> Архив погоды >> Черногория >> Бар


ПОГОДА в Баре

  • Прогноз погоды в Баре
  • Монитор погоды в Баре

АРХИВ ПОГОДЫ в Баре

Время (UTC), дата Ветер
(напр.,м/с)
 
Видим.   Явления Облачность Т
(С)
Тd
(С)
f
(%)
Тe
(С)
Тes
(С)
Комфортность P
(гПа)
Po
(гПа)
Тmin
(С)
Tmax
(С)
R
(мм)
R24
(мм)
S
(см)
13 14.07 З 6 25 км 1/1 1380 м
[Cu med, cong]
+28.9 +18.5 53 +34 +39 очень
душно
1008.7 1008.0
14 14.07 З 5 25 км 1/1 1380 м
[Cu med, cong]
+29.2 +18.3 52 +34 +39 очень
душно
1008.6 1007.9
15 14.07 ЮЗ 2 25 км 3/1 1380 м
[Cu med, cong Ac trans]
+26.8 +17.9 58 +31 +36 душно 1008.4 1007.7
16 14.07 З 6 25 км 3/1 1380 м
[Cu med, cong Ac trans]
+27.8 +19.3 60 +33 +34 очень
душно
1008.2 1007.5
17 14.07 З 5 25 км 1/1 1380 м
[Cu med, cong]
+26.9 +18.6 60 +32 +32 очень
душно
1008.2 1007.5
18 14.07 СВ 2 25 км ясно +25.2 +17.0 60 +29 +29 душно 1008.1 1007.4 +29.4
19 14.07 СВ 3 20 км 1/0
[As trans]
+23.0 +15.1 61 +27 +27 душно 1008.7 1008.0
20 14.07 СВ 3 20 км 1/0
[Ac trans]
+22.1 +14.5 62 +25 +25 комфорт 1009.1 1008.4
21 14.07 СВ 3 20 км ясно +22.9 +11.9 50 +25 +25 комфорт 1009.1 1008.4
00 15.07 С 4 20 км ясно +23.2 +11.4 47 +25 +25 комфорт 1009.1 1008.4
01 15.07 штиль 0
{2}
н/о н/о +14.5 +13.3 93 +14 +14 1018.6 958.0
03 15.07 СВ 6
{12}
20 км ясно +23.0 +10.6 45 +25 +25 комфорт 1008.1 1007.4
04 15.07 СВ 6
{12}
20 км ясно +22.4 +10.7 47 +24 +24 комфорт 1007.7 1007.0
05 15.07 СВ 6
{11}
20 км ясно +23.2 +11.0 46 +25 +26 комфорт 1007.9 1007.2
06 15.07 СВ 6
{12}
20 км ясно +25.1 +10.8 41 +26 +28 жарко 1008.4 1007.7 +22.4
07 15.07 СВ 6
{12}
20 км 1/0
[Ci sp]
+26.5 +10.8 37 +27 +31 жарко 1008.8 1008.1
08 15.07 СВ 4 25 км 1/0
[Ci sp]
+27.9 +11.7 37 +29 +38 жарко 1008.6 1007.9
09 15.07 СВ 4 25 км 1/0
[Ci fib]
+29.0 +11.5 34 +30 +41 жарко 1008.5 1007.8
10 15.07 С 4 25 км 4/0
[Ci sp]
+29.3 +11.3 33 +30 +42 жарко 1008.4 1007.7
11 15.07 С 3 25 км 6/0
[Cs]
+29.6 +11.2 32 +30 +44 жарко 1008.2 1007.5
12 15.07 З 4
{12}
25 км 6/1 1380 м
[Cu med, cong Ci]
+28.8 +18.8 55 +34 +44 очень
душно
1008.2 1007.5
13 15.07 З 5 25 км 8/1 1380 м
[Cu med, cong Ci sp]
+28.5 +19.4 58 +34 +40 очень
душно
1007.8 1007.1
14 15.07 З 5 25 км 6/1 1380 м
[Cu med, cong Ci sp]
+29.8 +18.4 50 +35 +39 очень
душно
1008.8 1008.1
15 15.07 З 5 25 км 8/0
[Cs]
+27.9 +17.4 53 +32 +35 душно 1007.7 1007.0
16 15.07 З 5 25 км 6/0
[Cs]
+26.2 +16.3 54 +30 +31 душно 1007.6 1006.9
17 15.07 З 4 25 км 9/0
[Ac As]
+24.8 +16.1 58 +28 +28 жарко 1007.6 1006.9
18 15.07 С 2 20 км 9/0
[Ac trans Cs]
+24.0 +16.1 61 +27 +27 жарко 1007.8 1007.1 +30.2
19 15.07 СВ 3 20 км 9/4 1500 м
[Cu Sc Ac trans Ci sp]
+23.3 +15.3 61 +28 +28 душно 1008.0 1007.3
20 15.07 СВ 3 20 км 9/4 1500 м
[Cu Sc Ac trans]
+23.4 +14.3 57 +27 +27 душно 1008.5 1007.8
21 15.07 С 2 20 км 9/9 1500 м
[Cu Sc]
+22.8 +14.7 60 +26 +26 жарко 1023.5 1022.8
00 16.07 СВ 5
{11}
20 км 9/6 1500 м
[Sc Ac trans]
+25.3 +10.8 40 +26 +26 жарко 1008.0 1007.3
03 16.07 С 7
{12}
20 км 10/6 1500 м
[Cu Sc As op]
+23.7 +10.4 43 +25 +25 комфорт 1007.5 1006.8
04 16.07 СВ 5
{12}
20 км 9/4 1500 м
[Cu Sc Ac trans]
+23.5 +10.7 44 +25 +25 комфорт 1007.3 1006.6
05 16.07 СВ 7
{14}
20 км 9/4 1500 м
[Cu Sc Ac trans]
+23.9 +10.8 44 +25 +25 комфорт 1007.3 1006.6
06 16.07 СВ 6
{14}
25 км 6/1 1500 м
[Cu Sc Ac trans Ci sp]
+24.8 +10.7 41 +26 +27 жарко 1007.4 1006.7 +23.4
07 16.07 СВ 6
{13}
25 км 9/1 1500 м
[Cu med, cong Ac trans Cs]
+25.7 +11.0 40 +27 +29 жарко 1007.7 1007.0
08 16.07 С 4 30 км 9/1 1500 м
[Cu med, cong Ac trans Cs]
+27.0 +11.9 39 +28 +33 жарко 1008.1 1007.4
09 16.07 С 4
{13}
30 км 9/3 1500 м
[Cu Sc Ac trans Cs]
+27.8 +11.7 37 +29 +33 жарко 1008.2 1007.5
10 16.07 С 4 30 км 9/4 1500 м
[Cu Sc Ac trans Cs]
+28.0 +11.2 35 +29 +33 жарко 1008.1 1007.4
11 16.07 В 4 30 км 9/3 1500 м
[Cu med, cong Ac cast Cs]
+28.6 +11.9 36 +30 +35 жарко 1008.1 1007.4
12 16.07 С 3
{11}
30 км 3/3 1500 м
[Cu med, cong Ac cast Cs]
+28.8 +11.5 34 +29 +40 жарко 1007.9 1007.2
13 16.07 Ю 3 30 км 9/5 1500 м
[Cu Sc Ac cuf Cs]
+27.9 +13.7 42 +30 +34 жарко 1007.6 1006.9
14 16.07 З 7 30 км 9/9 1500 м
[Cu Sc]
+24.9 +16.8 61 +29 +29 душно 1008.2 1007.5
15 16.07 З 5 20 км 9/5 1500 м
[Cu Sc Ac As]
+24.1 +16.8 64 +28 +29 душно 1008.6 1007.9
16 16.07 З 3 20 км 9/5 1500 м
[Cu Sc Ac As]
+23.8 +17.3 67 +28 +28 душно 1009.0 1008.3
17 16.07 С 2 20 км 9/0
[Ac As]
+23.9 +16.8 64 +27 +28 жарко 1009.2 1008.5
18 16.07 С 2 20 км 8/0
[Ac As]
+24.1 +16.6 63 +28 +28 душно 1009.2 1008.5 +29.5
19 16.07 В 3 20 км 3/0
[Ac cuf]
+22.6 +15.5 64 +27 +27 душно 1009.8 1009.1
20 16.07 С 4 20 км 3/0
[As trans]
+24.9 +8.8 36 +25 +25 комфорт 1010.0 1009.3
21 16.07 СВ 6
{13}
20 км 3/0
[As trans]
+24.6 +8.7 36 +25 +25 комфорт 1010.3 1009.6
00 17.07 СВ 4
{13}
20 км ясно +24.5 +8.5 36 +25 +25 комфорт 1010.4 1009.7
03 17.07 СВ 5
{11}
20 км ясно +23.5 +7.9 37 +24 +24 комфорт 1010.3 1009.6
04 17.07 В 7
{12}
20 км ясно +23.6 +7.8 36 +24 +24 комфорт 1010.4 1009.7
05 17.07 В 5
{11}
20 км ясно +24.2 +8.5 37 +25 +26 комфорт 1010.6 1009.9
06 17.07 СВ 6
{12}
30 км ясно +25.8 +8.7 34 +26 +28 жарко 1011.1 1010.4 +23.2
07 17.07 СВ 5 30 км ясно +27.3 +9.6 33 +28 +32 жарко 1011.3 1010.6
08 17.07 СВ 5 30 км ясно +28.4 +10.1 32 +29 +35 жарко 1011.2 1010.5
09 17.07 С 4 30 км ясно +29.0 +9.5 30 +29 +40 жарко 1011.4 1010.7
10 17.07 С 4 30 км ясно +29.9 +9.6 28 +30 +42 жарко 1011.2 1010.5
11 17.07 Ю 4 30 км ясно +29.3 +16.1 45 +32 +45 душно 1010.9 1010.2
12 17.07 З 6 30 км ясно +28.9 +18.1 52 +34 +41 очень
душно
1011.3 1010.6
13 17.07 З 5 30 км ясно +29.1 +19.3 56 +35 +43 очень
душно
1011.4 1010.7
14 17.07 З 5 30 км ясно +28.3 +19.1 57 +34 +39 очень
душно
1011.2 1010.5
15 17.07 З 5 30 км ясно +28.4 +17.4 51 +32 +36 душно 1011.1 1010.4
16 17.07 З 5 30 км ясно +26.6 +16.3 53 +30 +32 душно 1010.9 1010.2
17 17.07 З 5 30 км ясно +26.0 +17.3 59 +30 +30 душно 1010.9 1010.2
18 17.07 З 3 30 км ясно +24.7 +16.9 62 +28 +28 душно 1011.0 1010.3 +31.5
19 17.07 СВ 2 25 км ясно +22.9 +13.5 55 +26 +26 жарко 1011.1 1010.4
20 17.07 В 3 20 км ясно +22.0 +12.7 56 +25 +25 комфорт 1011.5 1010.8
21 17.07 В 3 20 км ясно +21.4 +11.6 54 +23 +23 комфорт 1011.3 1010.6
00 18.07 В 3 20 км ясно +18.8 +11.6 63 +20 +20 1011.1 1010.4
03 18.07 В 3 20 км ясно +17.8 +12.8 73 +18 +18 1011.3 1010.6
04 18.07 Ю 2 20 км ясно +18.4 +13.3 72 +19 +20 1011.5 1010.8
05 18.07 В 2 20 км ясно +21.2 +15.1 68 +24 +26 комфорт 1011.6 1010.9
06 18.07 З 1 20 км 1/0
[Ci fib]
+25.9 +14.6 50 +28 +34 жарко 1011.7 1011.0 +17.8
07 18.07 З 4 20 км 1/0
[]
+25.3 +17.9 64 +30 +35 душно 1012.2 1011.5
08 18.07 З 4 20 км 1/0
[Ci fib]
+26.7 +19.6 65 +32 +41 очень
душно
1012.5 1011.8
09 18.07 З 3 20 км 1/1 1200 м
[Cu med, cong]
+27.3 +20.3 66 +34 +46 очень
душно
1012.9 1012.2
10 18.07 ЮЗ 3 20 км 3/1 1200 м
[Cu med, cong Ci sp]
+26.5 +18.5 61 +31 +45 душно 1012.9 1012.2
11 18.07 ЮЗ 4 20 км 3/1 1200 м
[Cu med, cong Ci sp]
+26.9 +19.8 65 +33 +44 очень
душно
1013.1 1012.4
12 18.07 З 3 20 км 3/1 1200 м
[Cu med, cong]
+27.8 +18.9 58 +33 +45 очень
душно
1012.9 1012.2
14 18.07 З 3 20 км 6/1 1300 м
[Cu hum Ci sp]
+28.5 +20.4 62 +35 +42 очень
душно
1012.7 1012.0
15 18.07 З 3 20 км 5/0
[Ci]
+29.4 +20.8 60 +37 +41 очень
душно
1012.4 1011.7
16 18.07 З 3 20 км 3/0
[Ci]
+28.5 +20.8 63 +36 +38 очень
душно
1012.0 1011.3
17 18.07 З 3 20 км 1/0
[Ci sp]
+27.1 +20.3 66 +33 +34 очень
душно
1012.3 1011.6
18 18.07 СЗ 2 20 км 1/0
[Ci sp]
+25.1 +19.7 72 +31 +31 очень
душно
1012.9 1012.2 +29.7
19 18.07 СВ 2 20 км 1/0
[Ci sp]
+23.1 +15.2 61 +27 +27 душно 1013.4 1012.7
20 18.07 В 3 20 км ясно +22.1 +13.2 57 +25 +25 комфорт 1013.9 1013.2
21 18.07 СВ 3 20 км ясно +21.0 +13.1 61 +24 +24 комфорт 1014.4 1013.7
00 19.07 СВ 3 20 км ясно +21.0 +13.6 63 +24 +24 комфорт 1014.9 1014.2
03 19.07 СВ 2 20 км 1/0
[Ac lent]
+19.2 +14.5 74 +21 +21 комфорт 1015.1 1014.4
04 19.07 В 3 20 км 3/3 1500 м
[Cu med, cong]
+19.3 +14.5 74 +21 +21 комфорт 1015.3 1014.6
05 19.07 В 3 20 км 3/0
[Ac trans Ci sp]
+21.5 +15.7 70 +25 +26 комфорт 1015.3 1014.6
06 19.07 ЮЗ 2 20 км 3/0
[Ac trans Ci fib]
+25.8 +17.9 62 +30 +35 душно 1015.8 1015.1 +19.0
07 19.07 З 2 20 км 1/0
[Ci sp]
+25.6 +18.7 66 +31 +39 очень
душно
1016.0 1015.3
08 19.07 З 3 25 км 1/0
[Ci sp]
+26.1 +19.7 68 +32 +42 очень
душно
1016.3 1015.6
09 19.07 З 3 25 км 1/0
[Ci sp]
+25.6 +19.6 69 +31 +44 очень
душно
1016.4 1015.7
10 19.07 ЮЗ 3 25 км 3/1 1380 м
[Cu med, cong Ci sp]
+27.0 +20.5 68 +34 +47 очень
душно
1016.5 1015.8
11 19.07 З 3 25 км 3/1 1380 м
[Cu med, cong Ci sp]
+28.1 +21.4 67 +36 +49 очень
душно
1016.4 1014.7
12 19.07 З 3 25 км 3/1 1380 м
[Cu med, cong Ci sp]
+28.3 +21.5 67 +36 +49 очень
душно
1016.0 1015.3
13 19.07 З 3 25 км 3/1 1380 м
[Cu med, cong]
+28.4 +21.3 65 +36 +46 очень
душно
1015.7 1015.0
14 19.07 З 3 25 км 3/1 1380 м
[Cu med, cong Ci sp]
+28.7 +21.7 66 +37 +44 очень
душно
1015.7 1015.0
15 19.07 З 5 25 км 3/1 1380 м
[Cu med, cong Ci sp]
+29.2 +21.8 64 +37 +40 очень
душно
1015.6 1014.9
16 19.07 З 4 25 км 3/1 1380 м
[Cb cap Ci sp]
+29.0 +21.7 65 +37 +39 очень
душно
1015.7 1015.0
17 19.07 З 4 25 км 3/1 1380 м
[Cu med, cong Ci ing]
+26.8 +21.5 73 +34 +35 очень
душно
1015.8 1015.1
18 19.07 З 3 20 км 1/0
[Ci ing]
+24.7 +21.0 80 +31 +31 очень
душно
1016.1 1015.4 +29.7
19 19.07 С 2 20 км ясно +23.3 +20.6 85 +31 +31 очень
душно
1016.6 1015.9
20 19.07 СВ 2 20 км ясно +22.4 +18.0 76 +27 +27 душно 1016.9 1016.2
21 19.07 В 2 20 км ясно +21.5 +16.5 73 +25 +25 комфорт 1016.9 1016.2
00 20.07 СВ 2 20 км ясно +20.5 +16.6 78 +24 +24 комфорт 1017.2 1016.5
03 20.07 В 2 20 км ясно +19.5 +16.1 81 +22 +22 комфорт 1017.2 1016.5
04 20.07 СВ 2 20 км ясно +19.3 +16.0 81 +22 +22 комфорт 1017.6 1016.9
05 20.07 В 2 25 км ясно +21.9 +16.6 72 +26 +28 душно 1017.9 1017.2
06 20.07 З 3 25 км ясно +24.1 +18.0 69 +28 +32 душно 1018.1 1017.4 +19.1
07 20.07 З 2 25 км ясно +25.1 +18.6 67 +30 +38 душно 1018.2 1017.5
08 20.07 З 3 20 км ясно +26.9 +21.2 71 +34 +45 очень
душно
1018.6 1017.9
09 20.07 З 3 20 км ясно +26.7 +21.5 73 +34 +48 очень
душно
1019.0 1018.3
10 20.07 З 3 20 км 1/1 1200 м
[Cu med, cong]
+28.9 +22.2 67 +38 +52 опасность
солнечного
удара
1019.1 1018.4
11 20.07 З 3 20 км 1/1 1200 м
[Cu med, cong]
+28.9 +22.5 68 +38 +52 опасность
солнечного
удара
1019.1 1018.4
12 20.07 З 3 20 км 1/1 1300 м
[Cu hum]
+29.4 +21.9 64 +38 +51 опасность
солнечного
удара
1019.0 1018.3
13 20.07 З 3 20 км 1/1 1300 м
[Cu hum]
+29.1 +22.3 67 +38 +49 очень
душно
1018.8 1018.1
14 20.07 З 4 20 км 1/1 1200 м
[Cu med, cong]
+29.1 +22.6 68 +38 +45 очень
душно
1018.7 1018.0
15 20.07 З 4 20 км 1/1 1200 м
[Cu med, cong]
+27.1 +22.5 76 +36 +40 очень
душно
1018.7 1018.0
16 20.07 З 4 20 км 1/1 1200 м
[Cu med, cong]
+29.5 +22.6 66 +39 +40 очень
душно
1018.4 1017.7
17 20.07 З 3 20 км 1/1 1200 м
[Cu med, cong]
+28.0 +21.8 69 +36 +37 очень
душно
1018.3 1017.6
18 20.07 З 2 20 км 1/1 1200 м
[Cu med, cong]
+25.7 +21.2 76 +32 +32 очень
душно
1018.5 1017.8 +29.6
19 20.07 В 2 20 км ясно +23.9 +19.1 75 +29 +29 душно 1018.6 1017.9
20 20.07 В 2 20 км ясно +22.6 +16.8 70 +27 +27 душно 1019.1 1018.4
21 20.07 В 3 20 км ясно +21.6 +14.4 64 +25 +25 комфорт 1019.2 1018.5
00 21.07 В 2 20 км ясно +20.4 +13.6 65 +23 +23 комфорт 1019.5 1018.8
03 21.07 В 3 20 км ясно +19.6 +15.0 75 +22 +22 комфорт 1019.3 1018.6
04 21.07 СВ 3 20 км ясно +21.1 +16.4 75 +25 +25 комфорт 1019.6 1018.9
05 21.07 СВ 3 20 км ясно +22.2 +15.7 67 +26 +28 душно 1019.9 1019.2
06 21.07 З 2 20 км ясно +25.6 +19.0 67 +31 +35 очень
душно
1020.0 1019.3 +19.5
07 21.07 З 2 20 км ясно +26.5 +19.4 65 +32 +41 очень
душно
1019.9 1019.2
08 21.07 ЮЗ 2 20 км ясно +26.9 +22.5 77 +35 +48 очень
душно
1019.9 1019.2
09 21.07 З 2 20 км ясно +27.3 +22.7 76 +36 +52 опасность
солнечного
удара
1019.9 1019.2
10 21.07 З 3 20 км 1/1 1300 м
[Cu med, cong]
+28.0 +23.0 74 +37 +51 опасность
солнечного
удара
1019.9 1019.2
11 21.07 З 3 20 км 1/1 1300 м
[Cu med, cong]
+28.3 +22.8 72 +38 +52 опасность
солнечного
удара
1020.0 1019.3
12 21.07 З 3 20 км 1/1 1300 м
[Cu med, cong]
+29.9 +23.4 68 +40 +54 опасность
солнечного
удара
1019.9 1019.2

 

Местоположение метеостанции Бар (Черногория): широта 42.10 долгота 19.10 высота над уровнем моря 6 м.

В архиве по умолчанию представлена погода в Баре за последнюю неделю. Архивные данные за месяц целиком и за предыдущие месяцы, начиная с января 2011 года, Вы можете получить, выбрав интересующий диапазон дат из раскрывающегося списка и нажав кнопку "Ввод!".


*Определитесь, кто Вы:
робот инопланетянин человек

Внимание! Время в таблицах - всемирное. Для получения местного времени необходимо прибавить поправку, которая равна 1 ч.

Смотрите также архив погоды в соседних городах и на ближайших метеорологических станциях:

Погода в Подгорице (Черногория) (32 км)
Погода в Шкодре (Албания) (35 км)
Погода в Подгорица-Граде (Черногория) (40 км)
Погода в Тивате (Черногория) (45 км)
Погода в Никшиче (Черногория) (76 км)
Погода в Тиране Лапрака (Албания) (86 км)
Погода в Дубровник аэропорту (Хорватия) (86 км)
Погода в Дурресе (Албания) (94 км)
Погода в Тиране (Албания) (103 км)
Погода в Дубровнике (Хорватия) (104 км)

Пояснения к столбцам:

Ветер - указаны скорость ветра в м/с - средняя за 10 мин, порывы в срок и между сроками (в фигурных скобках) и направление, откуда дует ветер: С - северный, СВ - северо-восточный, В - восточный, ЮВ - юго-восточный, Ю - южный, ЮЗ - юго-западный, З - западный, СЗ - северо-западный.
Видимость - горизонтальная дальность видимости в метрах или километрах. При видимости от 1 до 10 км при отсутствии осадков обычно наблюдается дымка, при ухудшении видимости до 1 км и менее - туман. В сухую погоду видимость может ухудшаться дымом, пылью или мглою.
Явления - указаны атмосферные явления, наблюдавшиеся в срок или в последний час перед сроком; фигурными скобками обозначены явления, наблюдавшиеся между сроками (за 1-3 часа до срока); квадратными скобками обозначены град или гололедные отложения с указанием их диаметра в мм.
Облачность - указаны через наклонную черту общая и нижняя облачность в баллах и высота нижней границы облаков в метрах; квадратными скобками обозначены формы облаков: Ci - перистые, Cs - перисто-слоистые, Cc - перисто-кучевые, Ac - высококучевые, As - высокослоистые, Sc - слоисто-кучевые, Ns - слоисто-дождевые, Cu - кучевые, Cb - кучево-дождевые. Подробнее классификацию облаков см. в Атласе облаков (PDF).
T - Температура воздуха - температура, измеренная на высоте 2 м над землей.
Td - Температура точки росы - температура, при понижении до которой содержащийся в воздухе водяной пар достигнет насыщения.
f - Относительная влажность воздуха - влажноcть воздуха, измеренная на высоте 2 м над землей.
Te - Эффективная температура - температура, которую ощущает одетый по сезону человек в тени. Характеристика душности погоды. При расчете учитывается влияние влажности воздуха и скорости ветра на теплоощущения человека.
Tes - Эффективная температура на солнце - температура, которую ощущает человек, с поправкой на солнечный нагрев. Характеристика знойности погоды. Зависит от высоты солнца над горизонтом, облачности и скорости ветра. Ночью, в пасмурную погоду, а также при ветре 12 м/с и более поправка равна нулю.
P - Атмосферное давление - приведенное к уровню моря атмосферное давление.
Po - Атмосферное давление - измеренное на уровне метеостанции атмосферное давление.
Tmin - Минимальная температура - минимум температуры воздуха на высоте 2 м над землей.
Tmax - Максимальная температура - максимум температуры воздуха на высоте 2 м над землей.
R - Количество осадков - Количество выпавших осадков за период времени, мм. При наведении курсора мыши на число - период времени, за который выпало указанное количество осадков.
R24 - Количество осадков - Количество выпавших осадков за 24 часа, мм.
S - Снежный покров - Высота снежного покрова, см. При наведении курсора мыши на число - состояние снежного покрова и степень покрытия местности в баллах.